Location: Unspecified
(48.5670°N, 0.0000°E)
Time: 05:52:09
(UTC+00:00)

Vanguard 2 Rocket - Pass Details

Date: 03 September 2019
Orbit: 554 x 3326 km, 32.9° (Epoch: 22 September)

Event Time Altitude Azimuth Distance (km) Brightness Sun altitude
Rises 05:19:31 0° 264° (W) 5,108 - -0.8°
Exits shadow 05:19:46 - 264° (W) 5,060 10.0 -0.8°
Reaches altitude 10° 05:23:19 10° 252° (WSW) 4,516 9.8 -0.2°
Maximum altitude 05:33:07 25° 204° (SSW) 4,265 10.0 1.4°
Drops below altitude 10° 05:46:13 10° 159° (SSE) 6,105 11.3 3.5°
Sets 05:52:42 0° 149° (SSE) 7,282 11.9 4.6°
